• In Deutschland
  • Länderverzeichnis
  • Für 7 Tage
  • Wassertemperatur
  • Satellitenkarten
  • Wetterkarte
  • Widgets
  • user-avatar
    Anmelden

    Stündliche Wetter Sekondi

    Heute, 26 Mai, Samstag

    Zeit Temperatur Niederschläge Wind Luftdruck Luftfeuchtigkeit
    00:00 +26°C° 0 mm 2 m/S 758 mmHg 94%
    01:00 +26°C° 0,3 mm 2 m/S 758 mmHg 94%
    02:00 +26°C° 0,3 mm 2 m/S 757 mmHg 94%
    03:00 +26°C° 0,3 mm 3 m/S 757 mmHg 95%
    04:00 +26°C° 0,1 mm 3 m/S 757 mmHg 95%
    05:00 +26°C° 0,1 mm 3 m/S 757 mmHg 95%
    06:00 +26°C° 0 mm 3 m/S 757 mmHg 95%
    07:00 +27°C° 0 mm 3 m/S 758 mmHg 90%
    08:00 +28°C° 0 mm 3 m/S 758 mmHg 85%
    09:00 +29°C° 0 mm 4 m/S 758 mmHg 80%
    10:00 +30°C° 0 mm 4 m/S 758 mmHg 77%
    11:00 +30°C° 0 mm 4 m/S 758 mmHg 73%
    12:00 +32°C° 0 mm 4 m/S 758 mmHg 70%
    13:00 +32°C° 0,3 mm 4 m/S 757 mmHg 71%
    14:00 +32°C° 0,3 mm 5 m/S 757 mmHg 71%
    15:00 +32°C° 0,3 mm 5 m/S 756 mmHg 72%
    16:00 +30°C° 0,2 mm 5 m/S 756 mmHg 76%
    17:00 +29°C° 0,2 mm 5 m/S 757 mmHg 80%
    18:00 +28°C° 0,2 mm 4 m/S 757 mmHg 85%
    19:00 +28°C° 0 mm 4 m/S 757 mmHg 86%
    20:00 +27°C° 0 mm 4 m/S 758 mmHg 88%
    21:00 +27°C° 0 mm 3 m/S 758 mmHg 89%
    22:00 +27°C° 0 mm 3 m/S 758 mmHg 90%
    23:00 +27°C° 0 mm 3 m/S 758 mmHg 92%

    Morgen, 27 Mai, Sonntag

    Zeit Temperatur Niederschläge Wind Luftdruck Luftfeuchtigkeit
    00:00 +27°C° 0 mm 3 m/S 758 mmHg 93%
    01:00 +26°C° 0,3 mm 3 m/S 758 mmHg 93%
    02:00 +26°C° 0,3 mm 3 m/S 758 mmHg 94%
    03:00 +26°C° 0,3 mm 3 m/S 757 mmHg 95%
    04:00 +26°C° 0,6 mm 3 m/S 757 mmHg 95%
    05:00 +26°C° 0,6 mm 3 m/S 758 mmHg 96%
    06:00 +26°C° 0,6 mm 3 m/S 758 mmHg 96%
    07:00 +27°C° 0,7 mm 4 m/S 758 mmHg 92%
    08:00 +28°C° 0,7 mm 4 m/S 759 mmHg 87%
    09:00 +30°C° 0,7 mm 4 m/S 759 mmHg 82%
    10:00 +30°C° 0,7 mm 5 m/S 759 mmHg 81%
    11:00 +32°C° 0,7 mm 5 m/S 759 mmHg 80%
    12:00 +32°C° 0,7 mm 5 m/S 759 mmHg 78%
    13:00 +30°C° 0,9 mm 5 m/S 758 mmHg 81%
    14:00 +30°C° 0,9 mm 6 m/S 758 mmHg 83%
    15:00 +29°C° 0,9 mm 6 m/S 757 mmHg 86%
    16:00 +28°C° 0,1 mm 6 m/S 758 mmHg 87%
    17:00 +28°C° 0,1 mm 5 m/S 758 mmHg 89%
    18:00 +27°C° 0,1 mm 5 m/S 758 mmHg 90%
    19:00 +27°C° 0 mm 5 m/S 759 mmHg 90%
    20:00 +27°C° 0 mm 5 m/S 759 mmHg 90%
    21:00 +27°C° 0 mm 4 m/S 760 mmHg 91%
    22:00 +27°C° 0 mm 4 m/S 760 mmHg 91%
    23:00 +27°C° 0 mm 4 m/S 759 mmHg 91%

    übermorgen, 28 Mai, Montag

    Zeit Temperatur Niederschläge Wind Luftdruck Luftfeuchtigkeit
    00:00 +26°C° 0 mm 4 m/S 759 mmHg 91%
    01:00 +26°C° 0 mm 4 m/S 759 mmHg 92%
    02:00 +26°C° 0 mm 4 m/S 758 mmHg 92%
    03:00 +26°C° 0 mm 4 m/S 758 mmHg 92%
    04:00 +26°C° 0,1 mm 4 m/S 758 mmHg 92%
    05:00 +26°C° 0,1 mm 4 m/S 759 mmHg 92%
    06:00 +26°C° 0,1 mm 4 m/S 759 mmHg 92%
    07:00 +27°C° 0 mm 4 m/S 759 mmHg 87%
    08:00 +29°C° 0 mm 4 m/S 760 mmHg 81%
    09:00 +30°C° 0 mm 4 m/S 760 mmHg 76%
    10:00 +32°C° 0 mm 4 m/S 760 mmHg 71%
    11:00 +33°C° 0 mm 4 m/S 760 mmHg 65%
    12:00 +34°C° 0 mm 4 m/S 760 mmHg 60%
    13:00 +34°C° 0 mm 4 m/S 759 mmHg 61%
    14:00 +34°C° 0 mm 4 m/S 758 mmHg 62%
    15:00 +33°C° 0 mm 5 m/S 758 mmHg 64%
    16:00 +32°C° 0 mm 4 m/S 758 mmHg 69%
    17:00 +30°C° 0 mm 4 m/S 758 mmHg 73%
    18:00 +29°C° 0 mm 4 m/S 758 mmHg 78%
    19:00 +28°C° 0 mm 4 m/S 759 mmHg 81%
    20:00 +27°C° 0 mm 4 m/S 759 mmHg 83%
    21:00 +26°C° 0 mm 4 m/S 760 mmHg 86%
    22:00 +26°C° 0 mm 3 m/S 760 mmHg 87%
    23:00 +26°C° 0 mm 3 m/S 760 mmHg 88%

    29 Mai, Dienstag

    Zeit Temperatur Niederschläge Wind Luftdruck Luftfeuchtigkeit
    00:00 +26°C° 0 mm 3 m/S 760 mmHg 89%
    01:00 +26°C° 0 mm 3 m/S 759 mmHg 89%
    02:00 +26°C° 0 mm 3 m/S 759 mmHg 89%
    03:00 +26°C° 0 mm 3 m/S 758 mmHg 88%
    04:00 +26°C° 0 mm 3 m/S 758 mmHg 87%
    05:00 +26°C° 0 mm 2 m/S 759 mmHg 86%
    06:00 +26°C° 0 mm 2 m/S 759 mmHg 85%
    07:00 +27°C° 0 mm 2 m/S 759 mmHg 81%
    08:00 +28°C° 0 mm 1 m/S 760 mmHg 77%
    09:00 +28°C° 0 mm 1 m/S 761 mmHg 73%
    10:00 +29°C° 0 mm 2 m/S 760 mmHg 70%
    11:00 +30°C° 0 mm 2 m/S 760 mmHg 66%
    12:00 +31°C° 0 mm 2 m/S 760 mmHg 63%
    13:00 +30°C° 0 mm 3 m/S 759 mmHg 64%
    14:00 +30°C° 0 mm 3 m/S 758 mmHg 65%
    15:00 +30°C° 0 mm 3 m/S 758 mmHg 66%
    16:00 +29°C° 0 mm 3 m/S 758 mmHg 70%
    17:00 +29°C° 0 mm 3 m/S 758 mmHg 73%
    18:00 +28°C° 0 mm 3 m/S 758 mmHg 76%
    19:00 +27°C° 0 mm 3 m/S 758 mmHg 78%
    20:00 +27°C° 0 mm 3 m/S 759 mmHg 80%
    21:00 +26°C° 0 mm 3 m/S 759 mmHg 82%
    22:00 +26°C° 0 mm 3 m/S 759 mmHg 83%
    23:00 +26°C° 0 mm 3 m/S 759 mmHg 84%

    30 Mai, Mittwoch

    Zeit Temperatur Niederschläge Wind Luftdruck Luftfeuchtigkeit
    00:00 +25°C° 0 mm 3 m/S 759 mmHg 85%
    01:00 +25°C° 0 mm 3 m/S 759 mmHg 86%
    02:00 +25°C° 0 mm 3 m/S 758 mmHg 86%
    03:00 +25°C° 0 mm 3 m/S 758 mmHg 87%
    04:00 +25°C° 0 mm 3 m/S 758 mmHg 87%
    05:00 +25°C° 0 mm 3 m/S 758 mmHg 88%
    06:00 +25°C° 0 mm 3 m/S 758 mmHg 88%
    07:00 +27°C° 0 mm 3 m/S 759 mmHg 81%
    08:00 +28°C° 0 mm 3 m/S 759 mmHg 74%
    09:00 +30°C° 0 mm 4 m/S 759 mmHg 67%
    10:00 +30°C° 0 mm 4 m/S 759 mmHg 65%
    11:00 +32°C° 0 mm 4 m/S 759 mmHg 64%
    12:00 +32°C° 0 mm 4 m/S 759 mmHg 62%
    13:00 +32°C° 0 mm 4 m/S 758 mmHg 63%
    14:00 +32°C° 0 mm 4 m/S 758 mmHg 64%
    15:00 +30°C° 0 mm 4 m/S 757 mmHg 65%
    16:00 +30°C° 0 mm 4 m/S 757 mmHg 69%
    17:00 +29°C° 0 mm 4 m/S 757 mmHg 72%
    18:00 +28°C° 0 mm 4 m/S 758 mmHg 75%
    19:00 +27°C° 0 mm 4 m/S 758 mmHg 78%
    20:00 +27°C° 0 mm 3 m/S 759 mmHg 80%
    21:00 +26°C° 0 mm 3 m/S 759 mmHg 82%
    22:00 +26°C° 0 mm 3 m/S 759 mmHg 82%
    23:00 +26°C° 0 mm 3 m/S 759 mmHg 83%

    31 Mai, Donnerstag

    Zeit Temperatur Niederschläge Wind Luftdruck Luftfeuchtigkeit
    00:00 +26°C° 0 mm 3 m/S 758 mmHg 83%
    01:00 +26°C° 0 mm 3 m/S 758 mmHg 83%
    02:00 +26°C° 0 mm 3 m/S 758 mmHg 83%
    03:00 +26°C° 0 mm 2 m/S 757 mmHg 83%
    04:00 +26°C° 0 mm 2 m/S 758 mmHg 83%
    05:00 +26°C° 0 mm 2 m/S 758 mmHg 83%
    06:00 +26°C° 0 mm 2 m/S 759 mmHg 83%
    07:00 +27°C° 0 mm 3 m/S 759 mmHg 76%
    08:00 +29°C° 0 mm 3 m/S 760 mmHg 69%
    09:00 +30°C° 0 mm 3 m/S 760 mmHg 63%
    10:00 +31°C° 0 mm 3 m/S 760 mmHg 60%
    11:00 +33°C° 0 mm 3 m/S 760 mmHg 57%
    12:00 +34°C° 0 mm 3 m/S 759 mmHg 54%
    13:00 +34°C° 0 mm 3 m/S 759 mmHg 54%
    14:00 +33°C° 0 mm 3 m/S 758 mmHg 55%
    15:00 +33°C° 0 mm 3 m/S 757 mmHg 55%
    16:00 +31°C° 0 mm 3 m/S 758 mmHg 60%
    17:00 +30°C° 0 mm 3 m/S 758 mmHg 66%
    18:00 +29°C° 0 mm 3 m/S 758 mmHg 71%
    19:00 +28°C° 0 mm 3 m/S 759 mmHg 75%
    20:00 +27°C° 0 mm 3 m/S 759 mmHg 78%
    21:00 +26°C° 0 mm 2 m/S 760 mmHg 82%
    22:00 +26°C° 0 mm 2 m/S 759 mmHg 83%
    23:00 +26°C° 0 mm 2 m/S 759 mmHg 84%
    Mehr zeigen